EA3CTN-13 Weather Reports


time (UTC)temp
F
wind
direction
speed
knots
gust
knots
rain 1hr
in
rain 24hr
in
rain mn
in
humidity
%
barometer
mb
20260506214121 69 0.0 0.0 0.00 0.00 0.00 52 1014.0
20260506213321 69 0.0 0.0 0.00 0.00 0.00 52 1014.1
20260506212521 69 0.0 0.0 0.00 0.00 0.00 52 1014.1
20260506211721 69 0.0 0.0 0.00 0.00 0.00 52 1014.1
20260506210921 69 0.0 0.0 0.00 0.00 0.00 51 1014.0
20260506210121 69 0.0 0.0 0.00 0.00 0.00 51 1014.1
20260506205321 69 0.0 0.0 0.00 0.00 0.00 50 1014.0
20260506204521 69 0.0 0.0 0.00 0.00 0.00 50 1013.9
20260506203721 69 0.0 0.0 0.00 0.00 0.00 49 1013.7
20260506202921 69 0.0 0.0 0.00 0.00 0.00 48 1013.7
20260506202121 70 0.0 0.0 0.00 0.00 0.00 47 1013.6
20260506201321 70 0.0 0.0 0.00 0.00 0.00 46 1013.3
20260506200521 69 0.0 0.0 0.00 0.00 0.00 46 1013.2
20260506195721 70 0.0 0.0 0.00 0.00 0.00 46 1013.2
20260506194921 70 0.0 0.0 0.00 0.00 0.00 45 1013.0
20260506194121 70 0.0 0.0 0.00 0.00 0.00 43 1012.9
20260506193321 71 0.0 0.0 0.00 0.00 0.00 43 1012.7
20260506192521 70 0.0 0.0 0.00 0.00 0.00 43 1012.6
20260506191721 71 0.0 0.0 0.00 0.00 0.00 42 1012.5
20260506190920 71 0.0 0.0 0.00 0.00 0.00 42 1012.5
20260506190121 71 0.0 0.0 0.00 0.00 0.00 42 1012.3
20260506185321 71 0.0 0.0 0.00 0.00 0.00 42 1012.3
20260506184521 72 0.0 0.0 0.00 0.00 0.00 41 1012.2
20260506183721 72 0.0 0.0 0.00 0.00 0.00 42 1012.1
20260506182921 72 0.0 0.0 0.00 0.00 0.00 42 1011.9
20260506182121 72 0.0 0.0 0.00 0.00 0.00 41 1011.9
20260506181321 73 0.0 0.0 0.00 0.00 0.00 39 1011.8
20260506180521 73 0.0 0.0 0.00 0.00 0.00 38 1011.6
20260506175720 73 0.0 0.0 0.00 0.00 0.00 37 1011.7
20260506174922 74 0.0 0.0 0.00 0.00 0.00 37 1011.5
20260506174120 75 0.0 0.0 0.00 0.00 0.00 36 1011.4
20260506173321 74 0.0 0.0 0.00 0.00 0.00 37 1011.4
20260506172521 75 0.0 0.0 0.00 0.00 0.00 35 1011.1
20260506171721 76 0.0 0.0 0.00 0.00 0.00 34 1011.2
20260506170921 78 0.0 0.0 0.00 0.00 0.00 33 1011.1
20260506170121 78 0.0 0.0 0.00 0.00 0.00 34 1011.0
20260506165321 81 0.0 0.0 0.00 0.00 0.00 30 1010.8
20260506164520 86 0.0 0.0 0.00 0.00 0.00 25 1010.7
20260506163720 101 0.0 0.0 0.00 0.00 0.00 16 1010.4
20260506162920 100 0.0 0.0 0.00 0.00 0.00 16 1010.4
20260506162120 98 0.0 0.0 0.00 0.00 0.00 18 1010.5
20260506161320 95 0.0 0.0 0.00 0.00 0.00 19 1010.6
20260506160521 90 0.0 0.0 0.00 0.00 0.00 21 1010.7
20260506155721 84 0.0 0.0 0.00 0.00 0.00 26 1010.9
20260506154920 73 0.0 0.0 0.00 0.00 0.00 36 1011.1
20260506154120 71 0.0 0.0 0.00 0.00 0.00 37 1011.2
20260506153320 71 0.0 0.0 0.00 0.00 0.00 38 1011.3
20260506152520 71 0.0 0.0 0.00 0.00 0.00 37 1011.2
20260506151720 71 0.0 0.0 0.00 0.00 0.00 38 1011.4
20260506150920 70 0.0 0.0 0.00 0.00 0.00 41 1011.4
20260506150120 70 0.0 0.0 0.00 0.00 0.00 40 1011.4
20260506145320 70 0.0 0.0 0.00 0.00 0.00 41 1011.5
20260506144521 70 0.0 0.0 0.00 0.00 0.00 41 1011.5
20260506143721 70 0.0 0.0 0.00 0.00 0.00 41 1011.5
20260506142920 69 0.0 0.0 0.00 0.00 0.00 42 1011.7
20260506142120 70 0.0 0.0 0.00 0.00 0.00 41 1011.6
20260506141320 69 0.0 0.0 0.00 0.00 0.00 40 1011.7
20260506140520 69 0.0 0.0 0.00 0.00 0.00 39 1011.8
20260506135721 69 0.0 0.0 0.00 0.00 0.00 38 1011.7
20260506134920 69 0.0 0.0 0.00 0.00 0.00 39 1011.9
20260506134121 69 0.0 0.0 0.00 0.00 0.00 40 1012.0
20260506133320 69 0.0 0.0 0.00 0.00 0.00 39 1012.1
20260506132520 69 0.0 0.0 0.00 0.00 0.00 39 1012.0
20260506131720 69 0.0 0.0 0.00 0.00 0.00 38 1012.1
20260506130921 70 0.0 0.0 0.00 0.00 0.00 39 1012.2
20260506130120 69 0.0 0.0 0.00 0.00 0.00 38 1012.1
20260506125320 69 0.0 0.0 0.00 0.00 0.00 37 1012.2
20260506124520 69 0.0 0.0 0.00 0.00 0.00 35 1012.2
20260506123720 69 0.0 0.0 0.00 0.00 0.00 35 1012.3
20260506122920 69 0.0 0.0 0.00 0.00 0.00 34 1012.3
20260506122120 69 0.0 0.0 0.00 0.00 0.00 34 1012.4
20260506121320 69 0.0 0.0 0.00 0.00 0.00 34 1012.5
20260506120520 69 0.0 0.0 0.00 0.00 0.00 33 1012.5
20260506115721 69 0.0 0.0 0.00 0.00 0.00 34 1012.5
20260506114920 69 0.0 0.0 0.00 0.00 0.00 35 1012.5
20260506114120 69 0.0 0.0 0.00 0.00 0.00 36 1012.5
20260506113320 69 0.0 0.0 0.00 0.00 0.00 36 1012.4
20260506112520 69 0.0 0.0 0.00 0.00 0.00 36 1012.5
20260506111722 69 0.0 0.0 0.00 0.00 0.00 36 1012.4
20260506110921 68 0.0 0.0 0.00 0.00 0.00 37 1012.7
20260506110121 68 0.0 0.0 0.00 0.00 0.00 37 1012.6
20260506105320 68 0.0 0.0 0.00 0.00 0.00 37 1012.7
20260506104520 68 0.0 0.0 0.00 0.00 0.00 36 1012.8
20260506103722 68 0.0 0.0 0.00 0.00 0.00 37 1012.8
20260506102920 68 0.0 0.0 0.00 0.00 0.00 36 1013.0
20260506102120 68 0.0 0.0 0.00 0.00 0.00 36 1012.9
20260506101320 68 0.0 0.0 0.00 0.00 0.00 36 1013.0
20260506100520 67 0.0 0.0 0.00 0.00 0.00 37 1013.0
20260506095720 67 0.0 0.0 0.00 0.00 0.00 37 1013.1
20260506094920 67 0.0 0.0 0.00 0.00 0.00 37 1013.2
20260506094120 67 0.0 0.0 0.00 0.00 0.00 37 1013.2
20260506093320 67 0.0 0.0 0.00 0.00 0.00 38 1013.3
20260506092520 66 0.0 0.0 0.00 0.00 0.00 38 1013.3
20260506091720 66 0.0 0.0 0.00 0.00 0.00 39 1013.2
20260506090920 66 0.0 0.0 0.00 0.00 0.00 38 1013.2
20260506090120 66 0.0 0.0 0.00 0.00 0.00 39 1013.2
20260506085321 65 0.0 0.0 0.00 0.00 0.00 38 1013.2
20260506084520 65 0.0 0.0 0.00 0.00 0.00 39 1013.3
20260506083720 66 0.0 0.0 0.00 0.00 0.00 40 1013.3
20260506082920 65 0.0 0.0 0.00 0.00 0.00 41 1013.1
20260506082120 65 0.0 0.0 0.00 0.00 0.00 42 1013.0
20260506081320 65 0.0 0.0 0.00 0.00 0.00 43 1013.1
20260505215720 66 0.0 0.0 0.00 0.00 0.00 47 1012.1
20260505214920 66 0.0 0.0 0.00 0.00 0.00 46 1012.1